Alyeska Resort
Hourly Weather - Base Weather Site
ALY_BASE_HR 7/23/2016
CLICK TO VIEW GRAPH!!

        DATE  TIME   Air  BATT   H2o   H2o   Rel
                    Temp  Volt  Inch Since  Hum%
                      F   AVG   1HR  0600   AVG

   7/23/2016 08:00    55 13.62  0.00  0.00    96
   7/23/2016 07:00    55 13.63  0.00  0.00    96
   7/23/2016 06:00    55 13.63  0.00  0.42    96
   7/23/2016 05:00    54 13.64  0.00  0.42    96
   7/23/2016 04:00    54 13.64  0.00  0.42    95
   7/23/2016 03:00    54 13.63  0.00  0.42    95
   7/23/2016 02:00    55 13.62  0.02  0.42    95
   7/23/2016 01:00    55 13.62  0.00  0.40    95
   7/22/2016 24:00    55 13.60  0.00  0.40    95
   7/22/2016 23:00    56 13.59  0.01  0.40    94
   7/22/2016 22:00    57 13.57  0.01  0.39    93
   7/22/2016 21:00    58 13.57  0.00  0.38    94
   7/22/2016 20:00    58 13.56  0.01  0.38    94
   7/22/2016 19:00    58 13.56  0.03  0.37    94
   7/22/2016 18:00    58 13.56  0.03  0.34    94
   7/22/2016 17:00    58 13.55  0.07  0.31    94
   7/22/2016 16:00    59 13.54  0.04  0.24    92
   7/22/2016 15:00    60 13.55  0.01  0.20    89
   7/22/2016 14:00    59 13.56  0.00  0.19    91
   7/22/2016 13:00    59 13.56  0.00  0.19    92
   7/22/2016 12:00    59 13.57  0.00  0.19    90
   7/22/2016 11:00    57 13.58  0.03  0.19    94
   7/22/2016 10:00    57 13.58  0.15  0.16    95
   7/22/2016 09:00    57 13.58  0.01  0.01    94


CLICK TO VIEW GRAPH!!